| time (UTC) | temp F | wind direction | speed knots | gust knots | rain 1hr in | rain 24hr in | rain mn in | humidity % | barometer mb |
| 20260509184041 | 68 | 0.0 | 0.0 | 0.00 | 0.00 | 0.00 | 79 | 1016.2 | |
| 20260509183019 | 68 | 0.0 | 0.0 | 0.00 | 0.00 | 0.00 | 78 | 1016.1 | |
| 20260509182018 | 68 | 0.0 | 0.0 | 0.00 | 0.00 | 0.00 | 78 | 1016.1 | |
| 20260509181041 | 68 | 0 | 0.9 | 2.6 | 0.00 | 0.00 | 0.00 | 78 | 1016.0 |
| 20260509180018 | 69 | 0 | 0.9 | 2.6 | 0.00 | 0.00 | 0.00 | 78 | 1015.9 |
| 20260509175018 | 69 | 0.0 | 0.0 | 0.00 | 0.00 | 0.00 | 78 | 1015.8 | |
| 20260509174041 | 69 | 0.0 | 0.9 | 0.00 | 0.00 | 0.00 | 79 | 1015.4 | |
| 20260509173018 | 69 | 0.0 | 0.0 | 0.00 | 0.00 | 0.00 | 79 | 1015.2 | |
| 20260509172019 | 69 | 0.0 | 1.7 | 0.00 | 0.00 | 0.00 | 79 | 1015.3 | |
| 20260509171017 | 69 | 0.0 | 1.7 | 0.00 | 0.00 | 0.00 | 79 | 1015.3 | |
| 20260509170017 | 69 | 0.0 | 0.9 | 0.00 | 0.00 | 0.00 | 79 | 1015.3 | |
| 20260509165040 | 69 | 0.0 | 0.9 | 0.00 | 0.00 | 0.00 | 78 | 1015.4 | |
| 20260509164018 | 70 | 0.0 | 1.7 | 0.00 | 0.00 | 0.00 | 78 | 1015.3 | |
| 20260509163018 | 70 | 0 | 0.9 | 2.6 | 0.00 | 0.00 | 0.00 | 79 | 1015.3 |
| 20260509162019 | 69 | 0 | 0.9 | 3.5 | 0.00 | 0.00 | 0.00 | 80 | 1015.2 |
| 20260509161017 | 69 | 0 | 0.9 | 1.7 | 0.00 | 0.00 | 0.00 | 80 | 1015.3 |
| 20260509160017 | 69 | 0.0 | 2.6 | 0.00 | 0.00 | 0.00 | 80 | 1015.4 | |
| 20260509155018 | 69 | 0 | 0.9 | 3.5 | 0.00 | 0.00 | 0.00 | 80 | 1015.2 |
| 20260509154018 | 70 | 0 | 1.7 | 4.3 | 0.00 | 0.00 | 0.00 | 81 | 1015.2 |
| 20260509153019 | 70 | 0 | 0.9 | 1.7 | 0.00 | 0.00 | 0.00 | 80 | 1015.2 |
| 20260509152042 | 70 | 0 | 0.9 | 4.3 | 0.00 | 0.01 | 0.00 | 78 | 1015.0 |
| 20260509151017 | 70 | 0 | 2.6 | 5.2 | 0.00 | 0.01 | 0.00 | 78 | 1015.0 |
| 20260509150018 | 71 | 0 | 1.7 | 4.3 | 0.00 | 0.01 | 0.00 | 77 | 1014.9 |
| 20260509145019 | 71 | 0 | 3.5 | 10.4 | 0.00 | 0.01 | 0.00 | 76 | 1015.0 |
| 20260509144039 | 71 | 0 | 2.6 | 7.0 | 0.00 | 0.01 | 0.00 | 76 | 1014.8 |
| 20260509143017 | 72 | 0 | 1.7 | 4.3 | 0.00 | 0.01 | 0.00 | 74 | 1014.9 |
| 20260509142019 | 72 | 0 | 2.6 | 5.2 | 0.00 | 0.01 | 0.00 | 69 | 1014.9 |
| 20260509141017 | 72 | 0 | 1.7 | 4.3 | 0.00 | 0.01 | 0.00 | 72 | 1014.9 |
| 20260509140017 | 71 | 0 | 0.9 | 3.5 | 0.00 | 0.01 | 0.00 | 74 | 1015.0 |
| 20260509135018 | 71 | 0 | 0.9 | 1.7 | 0.00 | 0.01 | 0.00 | 74 | 1015.1 |
| 20260509134059 | 71 | 0 | 0.9 | 3.5 | 0.00 | 0.01 | 0.00 | 74 | 1015.1 |
| 20260509133017 | 70 | 0 | 0.9 | 4.3 | 0.00 | 0.01 | 0.00 | 73 | 1015.2 |
| 20260509132017 | 70 | 0 | 2.6 | 8.7 | 0.00 | 0.01 | 0.00 | 72 | 1015.2 |
| 20260509131019 | 71 | 0 | 1.7 | 4.3 | 0.00 | 0.01 | 0.00 | 70 | 1015.1 |
| 20260509130040 | 71 | 0 | 1.7 | 7.0 | 0.00 | 0.01 | 0.00 | 70 | 1015.2 |
| 20260509125019 | 71 | 0 | 1.7 | 3.5 | 0.00 | 0.01 | 0.00 | 70 | 1015.1 |
| 20260509124019 | 71 | 0 | 1.7 | 5.2 | 0.00 | 0.01 | 0.00 | 70 | 1015.1 |
| 20260509123019 | 72 | 0 | 1.7 | 5.2 | 0.00 | 0.01 | 0.00 | 68 | 1015.2 |
| 20260509122019 | 73 | 0 | 1.7 | 5.2 | 0.00 | 0.01 | 0.00 | 65 | 1015.1 |
| 20260509121020 | 72 | 0 | 1.7 | 4.3 | 0.00 | 0.02 | 0.00 | 65 | 1015.2 |
| 20260509120040 | 72 | 0 | 2.6 | 7.8 | 0.00 | 0.02 | 0.00 | 65 | 1015.2 |
| 20260509115019 | 73 | 0 | 1.7 | 3.5 | 0.00 | 0.02 | 0.00 | 65 | 1015.1 |
| 20260509114019 | 72 | 0 | 1.7 | 3.5 | 0.00 | 0.02 | 0.00 | 68 | 1015.3 |
| 20260509113020 | 71 | 0 | 1.7 | 7.0 | 0.00 | 0.05 | 0.00 | 68 | 1015.2 |
| 20260509112020 | 71 | 0 | 1.7 | 4.3 | 0.00 | 0.06 | 0.00 | 69 | 1015.3 |
| 20260509111020 | 71 | 0 | 1.7 | 3.5 | 0.00 | 0.08 | 0.00 | 68 | 1015.4 |
| 20260509110022 | 69 | 0 | 1.7 | 5.2 | 0.00 | 0.09 | 0.00 | 70 | 1015.6 |
| 20260509105019 | 69 | 0 | 1.7 | 4.3 | 0.00 | 0.09 | 0.00 | 72 | 1015.6 |
| 20260509104019 | 68 | 0 | 1.7 | 3.5 | 0.00 | 0.10 | 0.00 | 72 | 1015.6 |
| 20260509103019 | 68 | 0 | 1.7 | 7.8 | 0.00 | 0.11 | 0.00 | 71 | 1015.7 |
| 20260509102040 | 68 | 0 | 1.7 | 7.0 | 0.00 | 0.11 | 0.00 | 71 | 1015.9 |
| 20260509101020 | 68 | 0 | 0.9 | 4.3 | 0.00 | 0.12 | 0.00 | 72 | 1016.0 |
| 20260509100020 | 68 | 0 | 1.7 | 3.5 | 0.00 | 0.13 | 0.00 | 72 | 1015.9 |
| 20260509095041 | 68 | 0 | 1.7 | 3.5 | 0.00 | 0.13 | 0.00 | 72 | 1015.9 |
| 20260509094019 | 69 | 0 | 2.6 | 5.2 | 0.00 | 0.14 | 0.00 | 70 | 1016.0 |
| 20260509093019 | 70 | 0.0 | 4.3 | 0.00 | 0.15 | 0.00 | 70 | 1016.0 | |
| 20260509092020 | 69 | 0 | 1.7 | 3.5 | 0.00 | 0.15 | 0.00 | 72 | 1016.0 |
| 20260509091042 | 68 | 0 | 1.7 | 4.3 | 0.00 | 0.15 | 0.00 | 74 | 1016.2 |
| 20260509090018 | 67 | 0 | 1.7 | 4.3 | 0.00 | 0.15 | 0.00 | 75 | 1016.1 |
| 20260509085018 | 66 | 0 | 0.9 | 3.5 | 0.00 | 0.15 | 0.00 | 76 | 1016.3 |
| 20260509084019 | 66 | 0 | 2.6 | 5.2 | 0.00 | 0.15 | 0.00 | 78 | 1016.5 |
| 20260509083019 | 66 | 0 | 1.7 | 3.5 | 0.00 | 0.15 | 0.00 | 80 | 1016.5 |
| 20260509082018 | 65 | 0 | 0.9 | 2.6 | 0.00 | 0.15 | 0.00 | 82 | 1016.4 |
| 20260509081020 | 65 | 0.0 | 0.9 | 0.00 | 0.15 | 0.00 | 84 | 1016.6 | |
| 20260509080019 | 64 | 0.0 | 4.3 | 0.00 | 0.15 | 0.00 | 86 | 1016.7 | |
| 20260509075018 | 63 | 0 | 0.9 | 2.6 | 0.00 | 0.15 | 0.00 | 87 | 1016.6 |
| 20260509074019 | 63 | 0.0 | 0.9 | 0.00 | 0.15 | 0.00 | 88 | 1016.5 | |
| 20260509073018 | 62 | 0 | 0.9 | 1.7 | 0.00 | 0.15 | 0.00 | 88 | 1016.5 |
| 20260509072041 | 62 | 0 | 0.9 | 2.6 | 0.00 | 0.15 | 0.00 | 89 | 1016.6 |
| 20260509071019 | 61 | 0.0 | 1.7 | 0.00 | 0.15 | 0.00 | 89 | 1016.6 | |
| 20260509070020 | 61 | 0 | 0.9 | 3.5 | 0.00 | 0.15 | 0.00 | 89 | 1016.7 |
| 20260509065018 | 61 | 0 | 0.9 | 2.6 | 0.00 | 0.15 | 0.00 | 89 | 1016.6 |
| 20260509064018 | 61 | 0 | 1.7 | 2.6 | 0.00 | 0.15 | 0.00 | 89 | 1016.5 |
| 20260509063020 | 61 | 0 | 0.9 | 2.6 | 0.00 | 0.15 | 0.00 | 89 | 1016.6 |
| 20260509062018 | 61 | 0 | 0.9 | 1.7 | 0.00 | 0.15 | 0.00 | 90 | 1016.4 |
| 20260509061018 | 60 | 0.0 | 1.7 | 0.00 | 0.15 | 0.00 | 90 | 1016.7 | |
| 20260509060039 | 60 | 0 | 0.9 | 3.5 | 0.00 | 0.15 | 0.00 | 90 | 1016.6 |
| 20260509055019 | 60 | 0 | 0.9 | 2.6 | 0.00 | 0.15 | 0.00 | 90 | 1016.6 |
| 20260509054020 | 60 | 0 | 0.9 | 2.6 | 0.00 | 0.15 | 0.00 | 90 | 1016.3 |
| 20260509053018 | 60 | 0 | 0.9 | 2.6 | 0.00 | 0.15 | 0.00 | 90 | 1016.3 |
| 20260509052018 | 60 | 0 | 0.9 | 3.5 | 0.00 | 0.15 | 0.00 | 90 | 1016.4 |
| 20260509051105 | 60 | 0 | 1.7 | 4.3 | 0.00 | 0.15 | 0.00 | 90 | 1016.3 |
| 20260509050020 | 60 | 0 | 0.9 | 3.5 | 0.00 | 0.15 | 0.00 | 90 | 1016.0 |
| 20260509045019 | 60 | 0 | 0.9 | 1.7 | 0.00 | 0.15 | 0.00 | 90 | 1016.2 |
| 20260509044018 | 60 | 0.0 | 0.0 | 0.00 | 0.15 | 0.00 | 90 | 1016.0 | |
| 20260509043019 | 60 | 0.0 | 0.0 | 0.00 | 0.15 | 0.00 | 90 | 1015.8 | |
| 20260509042019 | 60 | 0.0 | 0.0 | 0.00 | 0.15 | 0.00 | 90 | 1015.8 | |
| 20260509041018 | 59 | 0.0 | 0.0 | 0.00 | 0.15 | 0.00 | 90 | 1015.8 | |
| 20260509040020 | 59 | 0.0 | 0.0 | 0.00 | 0.15 | 0.00 | 90 | 1015.8 | |
| 20260509035041 | 59 | 0.0 | 0.0 | 0.00 | 0.15 | 0.00 | 90 | 1015.9 | |
| 20260509034019 | 60 | 0.0 | 0.0 | 0.00 | 0.15 | 0.00 | 90 | 1016.1 | |
| 20260509033018 | 60 | 0.0 | 0.0 | 0.00 | 0.15 | 0.00 | 90 | 1015.9 | |
| 20260509032018 | 60 | 0.0 | 0.0 | 0.00 | 0.15 | 0.00 | 90 | 1015.8 | |
| 20260509031019 | 60 | 0.0 | 0.0 | 0.00 | 0.15 | 0.00 | 90 | 1015.9 | |
| 20260509030043 | 60 | 0.0 | 0.0 | 0.00 | 0.15 | 0.00 | 90 | 1015.9 | |
| 20260509025020 | 60 | 0.0 | 0.0 | 0.00 | 0.15 | 0.00 | 90 | 1016.0 | |
| 20260509024019 | 60 | 0.0 | 0.0 | 0.00 | 0.15 | 0.00 | 90 | 1015.9 | |
| 20260509023018 | 60 | 0.0 | 0.0 | 0.00 | 0.15 | 0.00 | 90 | 1015.9 | |
| 20260509022020 | 60 | 0.0 | 0.0 | 0.00 | 0.15 | 0.00 | 90 | 1015.9 | |
| 20260509021042 | 60 | 0.0 | 0.0 | 0.00 | 0.15 | 0.00 | 90 | 1015.9 | |
| 20260509020019 | 60 | 0.0 | 0.0 | 0.00 | 0.15 | 0.00 | 90 | 1015.9 | |
| 20260509015017 | 60 | 0.0 | 0.0 | 0.00 | 0.15 | 0.00 | 90 | 1015.9 | |
| 20260509014039 | 60 | 0.0 | 0.0 | 0.00 | 0.15 | 0.00 | 90 | 1016.1 | |
| 20260509013040 | 60 | 0.0 | 0.0 | 0.00 | 0.15 | 0.00 | 90 | 1016.1 | |
| 20260509012019 | 60 | 0.0 | 0.0 | 0.00 | 0.15 | 0.00 | 90 | 1016.2 | |
| 20260509011019 | 60 | 0.0 | 0.0 | 0.00 | 0.15 | 0.00 | 90 | 1016.2 | |
| 20260509010019 | 60 | 0.0 | 0.0 | 0.00 | 0.15 | 0.00 | 90 | 1016.1 | |
| 20260509005018 | 60 | 0.0 | 0.0 | 0.00 | 0.15 | 0.00 | 90 | 1016.1 | |
| 20260509004018 | 60 | 0.0 | 0.0 | 0.00 | 0.15 | 0.00 | 90 | 1016.2 | |
| 20260509003019 | 60 | 0.0 | 0.0 | 0.00 | 0.15 | 0.00 | 90 | 1016.3 | |
| 20260509002017 | 60 | 0.0 | 0.0 | 0.00 | 0.15 | 0.00 | 90 | 1016.5 | |
| 20260509001018 | 60 | 0.0 | 0.0 | 0.00 | 0.15 | 0.00 | 90 | 1016.7 | |
| 20260509000018 | 60 | 0.0 | 0.0 | 0.00 | 0.15 | 0.00 | 90 | 1016.8 | |
| 20260508235018 | 60 | 0.0 | 0.0 | 0.00 | 0.15 | 0.00 | 90 | 1016.8 | |
| 20260508234017 | 60 | 0.0 | 0.0 | 0.00 | 0.15 | 0.00 | 90 | 1017.0 | |
| 20260508233018 | 60 | 0.0 | 0.0 | 0.00 | 0.15 | 0.00 | 90 | 1016.7 | |
| 20260508232017 | 60 | 0.0 | 0.0 | 0.00 | 0.15 | 0.00 | 90 | 1016.9 | |
| 20260508231019 | 60 | 0.0 | 0.0 | 0.00 | 0.15 | 0.00 | 90 | 1016.9 | |
| 20260508230018 | 60 | 0.0 | 0.0 | 0.00 | 0.15 | 0.00 | 90 | 1017.1 | |
| 20260508225022 | 60 | 0.0 | 0.0 | 0.00 | 0.15 | 0.00 | 90 | 1017.2 | |
| 20260508224019 | 60 | 0.0 | 0.0 | 0.00 | 0.15 | 0.00 | 90 | 1017.2 | |
| 20260508223040 | 60 | 0.0 | 0.0 | 0.00 | 0.15 | 0.00 | 90 | 1017.2 | |
| 20260508222017 | 60 | 0.0 | 0.0 | 0.00 | 0.15 | 0.00 | 90 | 1017.5 | |
| 20260508221018 | 60 | 0.0 | 0.0 | 0.00 | 0.15 | 0.00 | 89 | 1017.5 | |
| 20260508220017 | 60 | 0.0 | 0.0 | 0.00 | 0.15 | 0.00 | 90 | 1017.4 | |
| 20260508215017 | 60 | 0.0 | 0.0 | 0.00 | 0.15 | 0.00 | 89 | 1017.4 | |
| 20260508214021 | 60 | 0.0 | 0.0 | 0.00 | 0.15 | 0.00 | 89 | 1017.5 | |
| 20260508213043 | 61 | 0.0 | 0.0 | 0.00 | 0.15 | 0.00 | 90 | 1017.4 | |
| 20260508212021 | 60 | 0.0 | 0.9 | 0.00 | 0.15 | 0.00 | 89 | 1017.6 | |
| 20260508211019 | 61 | 0.0 | 0.9 | 0.00 | 0.15 | 0.00 | 89 | 1017.5 | |
| 20260508210019 | 61 | 0.0 | 0.9 | 0.00 | 0.15 | 0.15 | 89 | 1017.5 | |
| 20260508205019 | 61 | 0.0 | 0.9 | 0.00 | 0.15 | 0.15 | 89 | 1017.6 | |
| 20260508204018 | 61 | 0.0 | 1.7 | 0.00 | 0.15 | 0.15 | 89 | 1017.6 | |
| 20260508203018 | 61 | 0.0 | 1.7 | 0.00 | 0.15 | 0.15 | 89 | 1017.5 | |
| 20260508202020 | 61 | 0.0 | 0.9 | 0.00 | 0.15 | 0.15 | 89 | 1017.4 | |
| 20260508201018 | 61 | 0.0 | 0.9 | 0.00 | 0.15 | 0.15 | 89 | 1017.5 | |
| 20260508200018 | 61 | 0 | 0.9 | 1.7 | 0.00 | 0.15 | 0.15 | 89 | 1017.7 |
| 20260508195041 | 61 | 0.0 | 1.7 | 0.00 | 0.15 | 0.15 | 89 | 1017.6 | |
| 20260508194018 | 61 | 0.0 | 0.9 | 0.00 | 0.15 | 0.15 | 88 | 1017.8 | |
| 20260508193020 | 61 | 0.0 | 0.0 | 0.00 | 0.15 | 0.15 | 88 | 1017.4 | |
| 20260508192018 | 61 | 0.0 | 0.9 | 0.00 | 0.15 | 0.15 | 88 | 1017.5 | |
| 20260508191019 | 62 | 0.0 | 0.9 | 0.00 | 0.15 | 0.15 | 88 | 1017.4 | |
| 20260508190018 | 62 | 0.0 | 0.0 | 0.00 | 0.15 | 0.15 | 88 | 1017.4 | |
| 20260508185018 | 62 | 0 | 0.9 | 1.7 | 0.00 | 0.15 | 0.15 | 88 | 1017.3 |